Location: Sungai Bunut
(2.6333°N, 113.7333°E)
Time: 11:08:31
(UTC+00:00)

Cosmos 1674 Rocket - Pass Details

Date: 16 October 2021
Orbit: 603 x 629 km, 82.5° (Epoch: 28 November)

Event Time Altitude Azimuth Distance (km) Brightness Sun altitude
Rises 20:27:09 0° 177° (S) 2,900 7.2 -25.9°
Reaches altitude 10° 20:29:25 10° 172° (S) 1,988 6.3 -25.4°
Maximum altitude 20:33:44 57° 94° (E) 726 4.1 -24.3°
Drops below altitude 10° 20:38:01 10° 15° (NNE) 1,965 6.2 -23.2°
Sets 20:40:14 0° 11° (N) 2,863 7.0 -22.7°
